Home > Weather > Illnau-Effretikon > Past weeks

Flag for Switzerland Past Weather in Illnau-Effretikon, Zurich, Switzerland — Yesterday and Last 2 Weeks

Now
71 °F

Mild.


Feels Like: 76 °F
Forecast: 55 / 72 °F
Wind: 10 mph from Southwest

Location: Zuerich-Fluntern

Current Time: Jul 31, 2016 at 5:50:42 AM

Latest Report: Jul 31, 2016 at 4:00 AM


Visibility: N/A

Pressure: 29.92 "Hg (28.19 "Hg at 514m altitude)

Humidity: 57%

Dew Point: 55 °F

Location of Illnau-EffretikonLocation

Past Weather in Illnau-Effretikon — Graph

°F

Illnau-Effretikon Temperature Yesterday

Maximum temperature yesterday: 84 °F (at 3:00 PM)
Minimum temperature yesterday: 64 °F (at 7:00 AM)
Average temperature yesterday: 72 °F

High & Low Weather Summary for the Past Weeks

 TemperatureHumidityPressure
High88 °F (Jul 20, 5:00 PM)100% (Jul 19, 4:00 PM)30.37 "Hg (Jul 19, 4:00 PM)
Low47 °F (Jul 16, 5:00 AM)32% (Jul 20, 7:00 PM)29.86 "Hg (Jul 30, 4:00 PM)
Average69 °F71%30.06 "Hg
* Reported Jul 16 3:00 AM — Jul 31 3:00 AM, Illnau-Effretikon, Weather by CustomWeather, © 2016

Note: Actual official high and low records may vary slightly from our data, if they occured in-between our weather recording intervals... More about our weather records

Advertising

Illnau-Effretikon Weather History for the Previous 24 Hours

Scroll right to see more
 ConditionsComfort  
Time TempWeatherWind HumidityBarometerVisibility
3:00 AM
Sun, Jul 31
67 °FMild.3 mph79%29.95 "HgN/A
2:00 AM68 °FMild.1 mph73%29.91 "HgN/A
1:00 AM67 °FMild.2 mph77%29.90 "HgN/A
12:00 AM69 °FMild.3 mph74%29.90 "HgN/A
11:00 PM
Sat, Jul 30
69 °FMild.1 mph79%29.91 "HgN/A
10:00 PM72 °FMild.No wind71%29.91 "HgN/A
8:00 PM77 °FOvercast.5 mph49%29.88 "HgN/A
7:00 PM78 °FWarm.10 mph46%29.88 "HgN/A
6:00 PM79 °FWarm.13 mph43%29.89 "HgN/A
5:00 PM83 °FPleasantly warm.17 mph35%29.88 "HgN/A
4:00 PM82 °FWarm.13 mph48%29.86 "HgN/A
3:00 PM84 °FWarm.15 mph42%29.87 "HgN/A
2:00 PM82 °FPassing clouds.12 mph50%29.89 "HgN/A
1:00 PM80 °FWarm.8 mph53%29.90 "HgN/A
12:00 PM79 °FWarm.6 mph57%29.91 "HgN/A
11:00 AM74 °FMild.3 mph66%29.93 "HgN/A
10:00 AM72 °FMild.1 mph70%29.95 "HgN/A
9:00 AM68 °FMild.1 mph80%29.97 "HgN/A
8:00 AM66 °FMild.2 mph85%29.98 "HgN/A
7:00 AM64 °FMild.1 mph89%29.98 "HgN/A
6:00 AM64 °FMild.3 mph87%29.98 "HgN/A
5:00 AM65 °FMild.3 mph87%29.98 "HgN/A
Weather by CustomWeather, © 2016

See weather overviewHow to use our weather pages